Regional Weather Roundup
Issued by NWS

Home | Current Version | Previous Version | Graphics & Text | Print | Product List | Glossary On
Versions: 1 2 3 4 5 6 7 8 9 10 11 12 13 14 15 16 17 18 19 20 21 22 23 24 25 26 27 28 29 30 31 32 33 34 35 36 37 38 39 40 41 42 43 44 45 46 47 48 49 50
006
ASUS43 KOAX 272302
RWRNE

WEATHER ROUNDUP FOR NEBRASKA
NATIONAL WEATHER SERVICE OMAHA NE
600 PM CDT SAT AUG 27 2016

NOTES: SATELLITE DATA IS BEING USED TO AUGMENT CLOUD COVER ABOVE
       12000 FEET.
       "FAIR" INDICATES FEW OR NO CLOUDS BELOW 12,000 FEET WITH NO
       SIGNIFICANT WEATHER AND/OR OBSTRUCTIONS TO VISIBILITY.

  * THESE STATIONS DO NOT REPORT WEATHER SUCH AS RAIN...SNOW OR FOG.

NEZ001>004-019>022-054>056-280000-
NEBRASKA PANHANDLE

CITY           SKY/WX    TMP DP  RH WIND       PRES   REMARKS
SCOTTSBLUFF    SUNNY     84  52  33 E13       29.97S
ALLIANCE       SUNNY     82  48  30 S15       29.98S
CHADRON        SUNNY     87  38  17 S6G17     29.89F
KIMBALL        MOSUNNY   81  45  27 SE14G25   30.04S
SIDNEY         SUNNY     83  45  26 S17       30.03F
$$

NEZ057>060-069>072-079>082-280000-
SOUTHWEST NEBRASKA

CITY           SKY/WX    TMP DP  RH WIND       PRES   REMARKS
NORTH PLATTE   SUNNY     85  60  42 S9        29.97F
IMPERIAL       CLOUDY    79  58  48 S12       30.00S
LEXINGTON      CLOUDY    83  63  51 SE14      29.99F
MCCOOK         CLOUDY    83  63  50 SE9       29.98S
OGALLALA       SUNNY     87  49  26 S14       29.99S
$$

NEZ005>010-023>029-035>040-094-280000-
NORTH CENTRAL NEBRASKA

CITY           SKY/WX    TMP DP  RH WIND       PRES   REMARKS
VALENTINE      SUNNY     85  53  33 S15G21    29.93S
AINSWORTH      MOSUNNY   83  60  46 S8        29.95R
BROKEN BOW     SUNNY     82  61  48 S18G25    29.98F
O`NEILL        SUNNY     85  58  39 S13       29.96S
ORD            SUNNY     84  60  44 S13G21    29.96S
THEDFORD       MOSUNNY   87  57  36 S14G21    29.97S
$$

NEZ041-046>049-061>064-073>077-083>087-280000-
SOUTH CENTRAL NEBRASKA

CITY           SKY/WX    TMP DP  RH WIND       PRES   REMARKS
GRAND ISLAND   SUNNY     83  63  50 SE12      29.99S
AURORA         SUNNY     83  62  49 S10       29.99S
HASTINGS       SUNNY     84  61  45 S10       30.00S
HEBRON         SUNNY     82  68  63 SE8       29.99S
HOLDREGE       SUNNY     81  62  52 S10       30.00S
KEARNEY *      SUNNY     82  63  51 S12       29.98S
YORK           SUNNY     82  64  54 S9        29.99F
$$

NEZ011>018-030>034-042>045-280000-
NORTHEAST NEBRASKA

CITY           SKY/WX    TMP DP  RH WIND       PRES   REMARKS
NORFOLK        SUNNY     81  61  50 S12       29.98S
ALBION         SUNNY     80  62  54 S8        29.98S
BLAIR          SUNNY     81  67  61 SW5       29.99S
FREMONT        SUNNY     81  65  58 S8        29.99S
TEKAMAH        SUNNY     80  66  62 S7        29.97S
WAYNE          SUNNY     78  67  69 S8        29.99S
$$

NEZ050>053-065>068-078-088>093-280000-
SOUTHEAST NEBRASKA

CITY           SKY/WX    TMP DP  RH WIND       PRES   REMARKS
LINCOLN        SUNNY     84  65  52 S9        29.99S
OMAHA EPPLEY   MOSUNNY   83  65  54 S9        29.97F
BEATRICE       SUNNY     83  66  57 S3        29.99S
FALLS CITY     MOSUNNY   83  70  64 SE3       29.98S
NEBRASKA CITY  SUNNY     82  64  55 SE3       30.00S
PLATTSMOUTH    MOSUNNY   82  68  63 S6        29.99F
$$

NEZ044-045-051>053-067-280000-
OMAHA AREA

CITY           SKY/WX    TMP DP  RH WIND       PRES   REMARKS
OMAHA EPPLEY   MOSUNNY   83  65  54 S9        29.97F
BLAIR          SUNNY     81  67  61 SW5       29.99S
FREMONT        SUNNY     81  65  58 S8        29.99S
MILLARD        SUNNY     83  68  60 SE6       29.98S
OFFUTT AFB     SUNNY     82  66  59 SE8       29.97F
PLATTSMOUTH    MOSUNNY   82  68  63 S6        29.99F
WAHOO          FAIR      81  64  56 S5        29.98S
$$




USA.gov is the U.S. government's official web portal to all federal, state and local government web resources and services.